Regional Weather Roundup
Issued by NWS Green Bay, WI

Home | Current Version | Previous Version | Graphics & Text | Print | Product List | Glossary Off
Versions: 1 2 3 4 5 6 7 8 9 10 11 12 13 14 15 16 17 18 19 20 21 22 23 24 25 26 27 28 29 30 31 32 33 34 35 36 37 38 39 40 41 42 43 44 45 46 47 48 49 50

000
ASUS43 KGRB 240811
RWRGRB

NORTH-CENTRAL AND NORTHEAST WISCONSIN REGIONAL WEATHER ROUNDUP
NATIONAL WEATHER SERVICE GREEN BAY WI
200 AM CST FRI FEB 24 2017

WIZ005-009-010>012-018-019-240900-
NORTH CENTRAL WISCONSIN

CITY           SKY/WX    TMP DP  RH WIND       PRES   REMARKS
IRONWOOD       CLOUDY    25  20  81 NE7       29.93R
MANITOWISH WTR CLOUDY    25  23  93 NE6       29.88R
ARBOR VITAE    CLOUDY    28  25  87 NE7         N/A
EAGLE RIVER    CLOUDY    27  22  84 NE9       29.87R
LAND O LAKES   CLOUDY    26  24  89 NE9       29.88R
RHINELANDER    CLOUDY    29  23  78 NE13      29.84F
PHILLIPS       CLOUDY    27  23  84 NE12G17   29.87S
ANTIGO         LGT SNOW  27  26  96 NE17      29.79F
TOMAHAWK       CLOUDY    28  21  75 N6        29.86R
MERRILL        NOT AVBL
$$

WIZ013-073-240900-
NORTHEAST WISCONSIN

CITY           SKY/WX    TMP DP  RH WIND       PRES   REMARKS
IRON MOUNTAIN  CLOUDY    29  20  69 N8        29.87F
MARINETTE      CLOUDY    32  25  75 NE16      29.86F
OCONTO         CLOUDY    31  24  75 NE14      29.85S
$$

WIZ017-030-035>037-045-240900-
CENTRAL WISCONSIN

CITY           SKY/WX    TMP DP  RH WIND       PRES   REMARKS
MEDFORD        SNOW      26  24  94 NE17      29.81S VSB 1/2
WAUSAU         SNOW      29  28  96 NE7       29.84R VSB 1/2
MOSINEE        SNOW      30  30 100 NE8       29.84R VSB 1/2
MARSHFIELD     HVY SNOW  30  28  92 NE15      29.77F VSB 1/4
WISC RAPIDS    SNOW      31  30  96 NE10G18   29.80F VSB 1/2
STEVENS POINT  MIX PCPN  28  28 100 N7        29.82R VSB 1
WAUPACA        LGT SNOW  32  30  91 NE15      29.79R VSB 1
SHAWANO        SNOW      32  29  90 NE14      29.85R VSB 1/2
CLINTONVILLE   LGT SNOW  30  30 100 NE16G24   29.81S VSB 3/4
WAUTOMA        LGT SNOW  30  28  93 NE13G18   29.77R FOG
$$

WIZ038-039-048-051-240900-
FOX VALLEY

CITY           SKY/WX    TMP DP  RH WIND       PRES   REMARKS
NWS GREEN BAY  LGT SNOW  31  31 100 NE26      29.80R VSB 1
APPLETON       LGT SNOW  30  30 100 NE21G29   29.74F
OSHKOSH        FLURRIES  31  29  92 NE14G23   29.78R
FOND DU LAC    FRZ RAIN  33  28  81 NE17G28   29.74F
$$

WIZ022-050-052-240900-
EAST CENTRAL WISCONSIN

CITY           SKY/WX    TMP DP  RH WIND       PRES   REMARKS
EPHRAIM        CLOUDY    32  24  73 NE9       29.84F
WASHINGTON ISL CLOUDY    31  24  74 NE12G18   29.87F
STURGEON BAY   LGT SNOW  30  28  93 NE12      29.83F VSB 1
MANITOWOC      MIX PCPN  32  30  92 NE15G25   29.76F FOG
SHEBOYGAN      FRZ RAIN  33  32  96 NE24G39   29.73F
$$

LMZ563-521-522-541>543-240900-
LAKESHORE

STATION/POSITION TIME  TEMP    WIND        PRES    VSBY  WAVE
                       AIR SEA DIR/SP/G                  HT/PER
                 (UTC) (F)     (DEG/KT/KT) (MB)    (MI)  (FT/S)
SHEBOYGAN LKSHOR 0800   33      40/ 30/ 35 1007.0F
KEWAUNEE LKSHORE 0748   32      60/ 17/ 25 1008.9F
NORTHPORT PIER   0740   33      10/ 10/ 13 1011.9F
SISTER BAY LKSHO 0735   33     360/ 10/ 13   N/A
CHAMBERS ISLAND  0740   32      20/ 15/ 19 1010.8F
MENOMINEE LKSHOR 0748   32      20/ 21/ 24 1010.4F
$$



USA.gov is the U.S. government's official web portal to all federal, state and local government web resources and services.